Theta_e
307 306 308 310 312 314 314 317 318 319 320 322 322 322 322 322 321 321 322 322 323 324 325 325 325 326 327 327 328 328 327 328 329 329 329 332 332 335 338 340 340 341 342 341
306 308 309 309 310 311 311 312 313 315 316 316 317 320 318 319 320 322 322 322 323 324 324 324 324 326 327 327 328 327 328 328 329 330 331 333 334 338 341 341 341 341 340 337
305 307 309 309 309 310 311 312 313 314 314 314 314 316 316 315 315 317 318 320 321 322 321 323 323 324 324 324 327 328 328 328 329 331 334 337 341 342 341 341 339 336 335 334
304 304 306 308 308 308 309 311 313 313 313 314 315 316 314 315 315 315 316 317 318 320 321 322 322 323 324 325 327 329 329 330 332 334 337 339 341 342 341 340 339 337 335 333
304 305 306 306 307 309 308 309 310 312 313 312 313 312 314 314 315 315 315 316 318 319 320 321 321 324 325 326 329 331 332 333 334 337 339 342 342 341 340 339 334 333 333 332
304 306 305 305 306 306 308 308 310 310 311 312 313 313 313 313 314 314 314 316 318 319 320 322 323 322 325 328 331 333 334 334 337 341 341 340 337 336 334 333 334 333 334 334
306 306 306 306 305 306 306 304 308 310 311 314 313 313 314 314 315 315 313 315 317 318 319 320 321 323 325 329 333 335 334 335 338 339 337 335 334 334 333 333 333 333 332 331
313 312 307 310 306 305 303 304 307 312 314 312 314 315 315 315 315 316 316 316 318 318 320 320 320 325 327 333 335 335 335 336 338 337 336 335 336 335 333 333 332 331 331 329
312 313 310 309 308 307 308 305 305 306 308 310 313 314 315 315 315 315 314 316 317 318 319 320 323 328 332 336 336 335 337 337 335 336 335 335 334 333 332 332 331 329 329 328
309 309 309 310 309 307 307 309 305 304 309 312 312 313 316 315 315 315 314 314 318 321 320 321 328 333 336 337 336 337 337 335 335 335 334 333 333 332 330 329 329 329 328 326
308 308 308 309 309 306 308 311 311 305 306 311 312 313 312 314 315 315 314 316 320 323 326 330 334 336 337 337 336 336 337 337 336 335 334 331 327 327 329 329 330 328 326 326
309 309 311 309 307 308 308 311 310 310 309 309 311 312 313 314 312 313 313 317 327 331 333 336 337 338 337 336 335 336 336 335 335 333 325 326 329 329 329 330 328 327 328 325
310 307 309 307 310 311 311 312 311 313 311 312 310 311 312 311 312 313 313 318 332 335 336 337 338 338 337 335 335 336 335 334 330 325 329 328 328 329 330 330 328 327 327 326
309 310 308 308 309 310 311 312 314 314 313 314 314 312 311 311 313 315 315 323 334 335 336 337 338 338 337 334 335 332 332 331 327 327 330 328 328 329 329 330 329 327 328 328
310 312 310 309 310 310 311 312 312 314 314 315 314 314 313 314 315 316 318 317 333 335 336 337 338 337 336 334 334 333 332 329 330 328 329 328 328 329 329 329 328 328 328 328
307 307 310 310 311 312 312 312 312 313 314 313 314 314 312 313 315 320 329 329 330 335 336 336 337 337 336 335 335 334 331 331 331 330 330 328 329 329 329 330 330 327 328 327
309 310 308 309 310 311 314 315 313 314 313 312 312 313 315 316 317 320 329 329 332 335 336 337 337 336 335 336 335 334 330 331 331 330 330 329 330 329 329 329 329 328 328 328
308 306 309 309 311 312 313 316 315 315 313 312 313 312 313 314 316 321 330 331 334 335 336 336 337 336 335 336 335 333 331 331 330 330 330 330 330 330 329 330 329 328 328 329
306 307 309 312 314 315 314 316 316 317 318 320 323 323 325 326 328 329 330 331 333 335 336 336 336 335 335 335 332 331 331 331 330 329 330 331 330 331 330 330 328 328 328 329
308 308 309 311 314 316 314 312 310 311 317 318 319 321 322 325 330 327 329 332 333 335 335 336 336 335 335 334 330 330 330 330 329 328 330 330 329 330 330 330 330 327 328 328
313 311 311 311 313 315 308 307 309 320 319 314 318 320 319 325 326 328 327 332 333 335 335 336 335 335 335 334 330 329 329 330 328 328 330 330 329 330 330 330 330 327 327 327
312 313 316 313 315 316 308 307 315 313 314 315 316 317 318 323 328 329 330 332 333 334 335 335 335 335 335 333 330 328 328 328 327 329 330 331 329 329 330 330 330 328 328 326
314 312 312 309 312 310 309 307 311 313 314 314 315 315 316 321 326 329 331 331 330 330 334 335 335 335 335 334 330 328 327 328 326 329 331 331 329 328 329 329 329 329 329 328
311 312 314 312 312 309 311 309 310 312 311 312 313 314 315 321 327 329 331 331 332 333 333 335 335 335 335 334 330 328 327 328 326 328 330 331 331 330 330 329 329 328 328 328
310 310 311 312 312 310 312 310 309 310 310 310 313 314 319 321 326 330 330 332 333 334 334 334 335 335 335 333 330 328 327 326 327 328 330 331 332 330 326 327 327 327 329 328
310 310 312 312 310 310 309 310 309 310 310 311 313 314 320 321 322 329 331 333 333 334 335 334 334 335 335 332 330 328 327 326 327 327 329 331 331 330 328 324 325 327 329 330
Wind_Speed
8 6 16 23 18 2 4 9 3 8 10 14 19 24 20 19 21 23 30 33 39 39 39 46 42 42 41 39 34 30 31 32 28 28 29 30 27 26 24 20 19 18 19 19
3 18 12 5 7 7 6 5 3 7 8 4 10 17 10 10 14 24 28 30 33 38 37 36 34 37 30 25 31 31 29 29 25 28 30 27 23 21 17 17 17 18 18 18
7 7 11 6 7 7 6 12 7 5 9 17 12 18 12 12 12 25 32 33 35 30 37 42 41 37 37 30 28 30 25 23 25 25 24 22 17 16 17 17 17 17 14 13
5 7 6 3 11 7 11 4 5 8 5 10 2 17 18 21 23 20 26 32 27 33 39 40 37 35 36 36 28 28 24 22 21 21 20 23 24 21 19 16 13 12 12 13
6 1 4 10 4 6 11 10 9 11 6 4 7 5 23 8 22 17 15 28 36 45 38 36 36 32 31 26 26 26 22 20 18 18 16 19 19 18 18 15 13 14 14 15
5 12 4 6 5 5 1 4 7 7 3 6 8 9 24 9 20 19 21 25 34 35 33 32 26 29 23 19 26 24 21 19 17 18 18 18 19 19 18 17 16 14 14 14
6 13 9 6 5 4 3 4 1 1 3 10 12 9 22 6 3 5 8 17 28 31 33 34 35 29 22 25 27 24 21 20 19 18 17 18 18 16 14 13 14 14 13 11
1 2 7 3 11 6 5 8 4 6 4 7 6 13 16 13 22 31 31 29 26 26 27 31 28 22 23 29 27 24 22 21 20 18 19 17 16 15 13 13 13 11 10 12
3 3 2 3 1 7 2 4 7 3 4 2 6 10 18 20 15 14 11 18 26 32 32 31 21 25 29 30 27 25 23 22 22 23 20 17 16 14 13 13 11 9 9 9
3 2 3 4 3 6 6 4 3 1 5 5 6 9 12 6 19 20 15 10 28 33 26 25 24 26 30 27 24 24 23 24 25 23 19 16 14 12 11 10 8 6 7 7
3 1 4 3 3 3 1 3 4 3 5 4 3 6 7 12 9 5 9 21 31 33 21 24 26 27 29 26 26 27 26 27 25 21 17 13 13 11 9 7 5 5 7 7
4 2 3 9 8 7 4 4 3 6 7 10 1 8 8 3 7 7 8 25 25 11 18 26 29 31 30 28 29 31 29 26 22 19 16 14 13 10 6 4 3 7 9 8
2 0 3 7 3 3 2 4 6 1 2 11 10 9 5 8 14 16 13 23 9 9 19 28 31 33 30 30 32 30 27 24 21 20 18 14 10 8 6 3 6 11 11 10
5 4 6 5 5 4 5 9 6 3 4 12 20 18 18 23 17 15 23 13 9 15 19 29 33 32 30 32 31 29 27 24 21 19 17 14 8 6 4 5 8 14 12 10
5 5 5 8 11 15 15 14 19 15 11 5 14 17 6 15 14 16 31 20 17 22 27 29 35 33 33 33 30 28 25 23 22 19 17 12 8 5 5 8 9 16 13 10
4 4 4 12 16 17 17 21 19 18 18 13 14 22 11 20 20 19 25 22 23 28 31 31 35 34 34 33 32 28 25 24 23 20 14 11 7 6 7 10 11 14 14 11
6 2 2 5 6 10 13 16 20 15 11 9 14 9 11 6 9 11 21 24 27 32 36 39 38 35 35 33 32 30 25 23 22 20 14 10 7 9 9 9 10 14 13 13
6 4 3 5 5 6 2 10 8 18 13 14 14 12 17 8 21 22 14 13 19 27 33 37 37 34 33 31 29 27 25 24 21 19 17 13 10 11 11 9 9 11 12 12
14 6 3 3 4 9 10 5 5 5 6 2 8 13 15 21 13 13 7 8 15 29 37 39 35 33 33 30 27 29 26 24 19 18 18 13 11 12 11 10 8 9 11 13
13 13 5 2 4 4 4 10 13 11 7 9 14 13 11 7 7 8 5 8 9 25 34 35 34 33 32 31 28 30 27 25 21 18 16 10 10 11 12 10 8 9 10 8
2 3 10 9 6 5 6 14 13 4 2 17 19 19 18 4 6 8 11 2 10 27 35 33 34 34 33 32 31 30 28 26 21 19 16 13 10 10 10 10 9 9 10 10
3 3 2 3 4 4 15 14 2 5 11 14 22 22 25 18 7 3 8 7 14 22 31 35 37 36 33 32 33 30 28 24 21 20 18 15 11 11 11 10 11 10 10 12
3 2 3 2 3 9 13 13 19 14 11 15 23 31 30 19 9 5 2 0 13 34 33 36 37 37 34 34 34 31 24 26 21 21 20 17 14 11 10 9 11 11 10 11
3 1 3 3 5 12 22 13 24 23 19 28 30 32 27 11 14 12 5 7 18 38 39 39 38 36 35 35 35 27 24 26 23 23 21 19 17 13 11 9 10 9 9 10
4 6 5 5 4 19 11 25 25 22 20 28 28 23 14 11 19 18 11 14 22 32 37 37 35 36 34 34 33 30 25 26 26 24 23 21 19 15 10 11 11 8 4 1
2 3 3 6 17 10 15 23 22 16 27 30 28 22 7 23 22 15 16 16 20 23 22 22 28 33 34 32 31 30 27 26 27 25 25 22 22 18 13 11 12 10 6 2
Wind_Direction
180 172 204 201 207 289 14 251 360 265 220 212 237 258 260 253 245 253 259 261 264 267 278 291 290 289 287 284 274 246 241 242 246 250 247 240 242 247 242 230 226 224 224 230
178 225 212 163 199 241 266 275 272 295 296 252 278 276 281 262 255 253 257 263 269 277 284 285 299 291 286 277 271 247 243 241 249 252 243 241 243 236 230 222 219 222 219 222
210 253 222 203 213 218 220 241 255 253 326 300 306 285 279 264 249 263 268 267 266 268 276 282 288 288 293 291 272 242 239 236 249 240 239 232 217 197 191 202 207 208 228 231
238 249 265 261 237 239 253 199 240 237 215 261 208 286 276 276 272 261 261 263 267 270 272 273 277 279 285 284 264 237 233 235 234 225 223 226 221 214 216 217 208 217 225 232
237 30 201 233 231 201 251 253 257 230 236 262 242 308 270 217 263 253 245 256 261 265 268 271 269 278 290 269 236 227 225 224 219 217 213 213 210 212 210 201 205 213 223 233
241 255 165 195 231 208 140 205 220 227 126 250 209 192 276 241 245 249 245 240 253 263 269 272 271 288 279 239 221 217 214 205 201 197 192 202 204 195 185 194 204 210 221 224
252 247 254 204 243 277 165 80 178 169 201 230 192 188 238 254 241 231 235 243 258 265 264 272 276 279 257 218 208 205 200 190 187 184 183 182 185 183 186 198 207 212 215 237
251 257 193 181 203 185 179 163 177 185 187 226 153 225 237 230 261 266 269 277 279 276 280 274 278 258 233 205 196 195 186 180 174 174 175 183 185 190 195 201 201 218 245 261
196 250 332 102 171 148 194 164 201 12 235 233 233 274 280 274 273 283 273 285 288 293 283 268 261 233 208 194 189 184 178 172 169 172 174 180 189 192 192 196 213 236 255 253
6 336 336 343 345 232 167 191 83 279 213 232 253 256 236 224 237 265 278 296 296 306 277 243 224 210 193 183 178 179 177 171 168 174 182 183 183 193 200 197 213 242 236 218
14 139 285 24 232 194 239 194 204 190 203 231 293 257 203 216 255 261 288 304 312 309 237 204 195 187 177 174 175 175 172 166 168 175 179 187 187 181 181 197 233 219 177 167
335 160 252 237 232 261 249 210 198 213 230 238 313 259 315 234 345 326 311 328 322 270 204 188 177 170 172 172 170 169 173 171 172 174 166 156 161 171 179 211 208 170 169 170
312 306 314 328 43 75 213 245 222 206 298 239 231 242 355 342 333 327 315 327 311 200 184 174 169 171 170 169 167 170 175 170 166 164 162 160 170 183 191 220 186 168 163 148
132 228 202 190 245 307 288 298 218 210 210 247 242 275 289 295 311 327 311 303 230 186 182 175 170 171 171 169 170 169 168 167 157 162 168 171 172 186 211 216 193 175 170 160
163 249 205 248 265 269 262 263 269 257 244 212 265 269 284 283 289 302 292 284 214 187 185 182 172 172 171 170 171 168 167 165 159 162 172 178 187 198 197 185 177 179 180 171
175 258 229 272 259 259 274 264 247 246 248 252 260 273 254 264 275 304 303 294 211 188 182 181 175 175 174 173 172 169 165 169 173 176 176 184 193 198 189 184 180 182 189 184
175 200 337 259 283 319 271 237 220 229 215 218 244 246 253 258 280 298 307 312 201 185 180 183 181 178 178 178 176 174 168 172 178 179 181 179 210 185 171 172 176 186 192 195
232 167 203 274 287 253 296 9 208 219 214 221 238 259 256 249 273 281 307 326 204 183 179 183 181 180 180 180 179 175 174 176 176 185 191 194 195 184 175 177 175 184 194 202
205 201 260 261 243 282 283 39 17 344 267 17 300 275 298 241 244 258 340 340 210 191 188 188 182 180 177 178 177 178 179 183 180 190 195 198 196 189 188 182 173 189 199 210
191 203 196 243 280 290 24 3 352 322 259 7 321 316 330 320 204 237 245 339 200 189 194 187 184 180 177 177 177 182 182 185 185 189 190 191 190 195 198 189 185 195 202 207
151 194 230 248 254 251 20 315 314 212 328 315 326 321 323 248 231 286 203 306 201 192 197 188 188 182 179 179 181 184 187 189 186 183 185 187 186 194 197 197 195 195 197 191
324 304 264 278 250 269 1 326 23 275 303 332 329 327 319 319 313 294 185 201 207 190 199 192 190 188 184 184 186 188 190 189 188 184 190 189 180 184 189 199 195 190 193 191
355 314 296 238 257 246 275 290 296 342 357 341 337 327 324 316 32 70 87 56 183 197 210 199 195 192 190 190 192 192 191 189 187 187 194 191 187 185 193 198 200 198 201 201
272 196 258 284 257 255 323 311 345 352 346 340 338 330 317 336 51 83 92 114 204 212 207 198 197 195 194 195 198 196 190 189 187 192 197 194 196 193 202 203 200 204 204 204
244 325 294 266 311 332 32 331 333 336 338 334 333 335 334 44 53 50 66 120 157 182 191 194 195 197 197 197 200 198 191 190 192 200 199 198 199 198 191 195 195 199 203 182
225 262 329 309 317 317 308 313 322 335 317 322 332 333 27 51 50 57 77 115 131 145 167 187 203 201 199 199 200 198 193 194 198 202 200 199 199 199 197 195 196 197 204 206